| time (UTC) | temp F | wind direction | speed MPH | gust MPH | rain 1hr in | rain 24hr in | rain mn in | humidity % | barometer mb |
| 20260506135208 | 55 | 12 | 6.0 | 18.0 | 0.00 | 0.00 | 0.00 | 70 | 1008.1 |
| 20260506134908 | 55 | 81 | 18.0 | 25.0 | 0.00 | 0.00 | 0.00 | 70 | 1008.1 |
| 20260506134608 | 55 | 78 | 10.0 | 17.0 | 0.00 | 0.00 | 0.00 | 70 | 1008.2 |
| 20260506134308 | 55 | 72 | 10.0 | 29.0 | 0.00 | 0.00 | 0.00 | 69 | 1007.9 |
| 20260506134008 | 55 | 100 | 0.0 | 25.0 | 0.00 | 0.00 | 0.00 | 69 | 1008.0 |
| 20260506133708 | 55 | 83 | 10.0 | 27.0 | 0.00 | 0.00 | 0.00 | 69 | 1007.9 |
| 20260506133408 | 55 | 108 | 8.0 | 27.0 | 0.00 | 0.00 | 0.00 | 70 | 1008.0 |
| 20260506133108 | 55 | 39 | 11.0 | 19.0 | 0.00 | 0.00 | 0.00 | 70 | 1007.9 |
| 20260506132808 | 55 | 3 | 13.0 | 28.0 | 0.00 | 0.00 | 0.00 | 69 | 1008.2 |
| 20260506132508 | 55 | 75 | 11.0 | 16.0 | 0.00 | 0.00 | 0.00 | 70 | 1007.9 |
| 20260506132208 | 55 | 30 | 4.0 | 14.0 | 0.00 | 0.00 | 0.00 | 70 | 1008.0 |
| 20260506131908 | 55 | 97 | 6.0 | 27.0 | 0.00 | 0.00 | 0.00 | 71 | 1007.9 |
| 20260506131608 | 55 | 61 | 7.0 | 40.0 | 0.00 | 0.00 | 0.00 | 70 | 1008.0 |
| 20260506131308 | 55 | 75 | 10.0 | 21.0 | 0.00 | 0.00 | 0.00 | 71 | 1008.1 |
| 20260506131008 | 55 | 31 | 20.0 | 21.0 | 0.00 | 0.00 | 0.00 | 71 | 1008.2 |
| 20260506130708 | 56 | 72 | 5.0 | 34.0 | 0.00 | 0.00 | 0.00 | 70 | 1007.9 |
| 20260506130408 | 56 | 332 | 12.0 | 27.0 | 0.00 | 0.00 | 0.00 | 71 | 1008.1 |
| 20260506130108 | 55 | 34 | 9.0 | 22.0 | 0.00 | 0.00 | 0.00 | 71 | 1008.0 |
| 20260506125808 | 56 | 82 | 15.0 | 20.0 | 0.00 | 0.00 | 0.00 | 71 | 1007.9 |
| 20260506125508 | 56 | 355 | 6.0 | 21.0 | 0.00 | 0.00 | 0.00 | 72 | 1008.0 |
| 20260506125208 | 56 | 62 | 15.0 | 23.0 | 0.00 | 0.00 | 0.00 | 70 | 1007.8 |
| 20260506124908 | 56 | 295 | 9.0 | 23.0 | 0.00 | 0.00 | 0.00 | 70 | 1008.0 |
| 20260506124608 | 56 | 74 | 7.0 | 21.0 | 0.00 | 0.00 | 0.00 | 71 | 1007.9 |
| 20260506124308 | 56 | 60 | 6.0 | 18.0 | 0.00 | 0.00 | 0.00 | 71 | 1007.8 |
| 20260506124008 | 56 | 102 | 16.0 | 19.0 | 0.00 | 0.00 | 0.00 | 72 | 1008.0 |
| 20260506123708 | 55 | 107 | 16.0 | 20.0 | 0.00 | 0.00 | 0.00 | 73 | 1007.9 |
| 20260506123408 | 55 | 15 | 8.0 | 33.0 | 0.00 | 0.00 | 0.00 | 73 | 1007.8 |
| 20260506123108 | 55 | 84 | 11.0 | 27.0 | 0.00 | 0.00 | 0.00 | 72 | 1007.8 |
| 20260506122808 | 55 | 109 | 11.0 | 15.0 | 0.00 | 0.00 | 0.00 | 71 | 1007.8 |
| 20260506122508 | 55 | 30 | 14.0 | 31.0 | 0.00 | 0.00 | 0.00 | 69 | 1007.8 |
| 20260506122208 | 55 | 59 | 10.0 | 25.0 | 0.00 | 0.00 | 0.00 | 69 | 1007.7 |
| 20260506121908 | 56 | 3 | 6.0 | 23.0 | 0.00 | 0.00 | 0.00 | 69 | 1007.8 |
| 20260506121608 | 55 | 127 | 5.0 | 25.0 | 0.00 | 0.00 | 0.00 | 71 | 1007.7 |
| 20260506121308 | 55 | 69 | 17.0 | 19.0 | 0.00 | 0.00 | 0.00 | 73 | 1007.4 |
| 20260506121008 | 55 | 321 | 18.0 | 19.0 | 0.00 | 0.00 | 0.00 | 72 | 1007.5 |
| 20260506120708 | 55 | 327 | 9.0 | 19.0 | 0.00 | 0.00 | 0.00 | 72 | 1007.4 |
| 20260506120408 | 55 | 341 | 19.0 | 28.0 | 0.00 | 0.00 | 0.00 | 72 | 1007.5 |
| 20260506120108 | 55 | 41 | 11.0 | 35.0 | 0.00 | 0.00 | 0.00 | 71 | 1007.5 |
| 20260506115808 | 55 | 346 | 11.0 | 31.0 | 0.00 | 0.00 | 0.00 | 71 | 1007.5 |
| 20260506115508 | 55 | 84 | 22.0 | 43.0 | 0.00 | 0.00 | 0.00 | 71 | 1007.6 |
| 20260506115208 | 55 | 327 | 7.0 | 31.0 | 0.00 | 0.00 | 0.00 | 72 | 1007.4 |
| 20260506114908 | 55 | 119 | 0.0 | 31.0 | 0.00 | 0.00 | 0.00 | 71 | 1007.5 |
| 20260506114608 | 56 | 84 | 9.0 | 23.0 | 0.00 | 0.00 | 0.00 | 70 | 1007.4 |
| 20260506114308 | 55 | 297 | 9.0 | 17.0 | 0.00 | 0.00 | 0.00 | 71 | 1007.5 |
| 20260506114008 | 55 | 112 | 5.0 | 13.0 | 0.00 | 0.00 | 0.00 | 72 | 1007.3 |
| 20260506113708 | 55 | 350 | 12.0 | 26.0 | 0.00 | 0.00 | 0.00 | 70 | 1007.5 |
| 20260506113408 | 55 | 82 | 8.0 | 27.0 | 0.00 | 0.00 | 0.00 | 71 | 1007.4 |
| 20260506113108 | 56 | 63 | 15.0 | 15.0 | 0.00 | 0.00 | 0.00 | 70 | 1007.6 |
| 20260506112808 | 55 | 89 | 0.0 | 19.0 | 0.00 | 0.00 | 0.00 | 71 | 1007.4 |
| 20260506112508 | 55 | 170 | 12.0 | 23.0 | 0.00 | 0.00 | 0.00 | 70 | 1007.4 |
| 20260506112208 | 56 | 2 | 16.0 | 26.0 | 0.00 | 0.00 | 0.00 | 70 | 1007.6 |
| 20260506111908 | 55 | 93 | 17.0 | 20.0 | 0.00 | 0.00 | 0.00 | 70 | 1007.4 |
| 20260506111608 | 55 | 92 | 12.0 | 16.0 | 0.00 | 0.00 | 0.00 | 70 | 1007.5 |
| 20260506111308 | 55 | 100 | 5.0 | 17.0 | 0.00 | 0.00 | 0.00 | 70 | 1007.3 |
| 20260506111008 | 55 | 62 | 8.0 | 22.0 | 0.00 | 0.00 | 0.00 | 70 | 1007.3 |
| 20260506110708 | 55 | 81 | 0.0 | 23.0 | 0.00 | 0.00 | 0.00 | 69 | 1007.1 |
| 20260506110408 | 55 | 29 | 7.0 | 22.0 | 0.00 | 0.00 | 0.00 | 69 | 1007.3 |
| 20260506110108 | 55 | 108 | 18.0 | 22.0 | 0.00 | 0.00 | 0.00 | 69 | 1007.4 |
| 20260506105808 | 55 | 101 | 4.0 | 26.0 | 0.00 | 0.00 | 0.00 | 70 | 1007.4 |
| 20260506105508 | 55 | 101 | 8.0 | 19.0 | 0.00 | 0.00 | 0.00 | 69 | 1007.3 |
| 20260506105208 | 55 | 88 | 9.0 | 16.0 | 0.00 | 0.00 | 0.00 | 69 | 1007.5 |
| 20260506104908 | 54 | 65 | 11.0 | 23.0 | 0.00 | 0.00 | 0.00 | 71 | 1007.7 |
| 20260506104608 | 54 | 347 | 9.0 | 15.0 | 0.00 | 0.00 | 0.00 | 71 | 1007.4 |
| 20260506104308 | 54 | 105 | 16.0 | 20.0 | 0.00 | 0.00 | 0.00 | 71 | 1007.3 |
| 20260506104008 | 54 | 97 | 17.0 | 29.0 | 0.00 | 0.00 | 0.00 | 70 | 1007.5 |
| 20260506103708 | 54 | 103 | 15.0 | 15.0 | 0.00 | 0.00 | 0.00 | 71 | 1007.3 |
| 20260506103408 | 54 | 89 | 20.0 | 20.0 | 0.00 | 0.00 | 0.00 | 70 | 1007.6 |
| 20260506103108 | 54 | 8 | 15.0 | 15.0 | 0.00 | 0.00 | 0.00 | 71 | 1007.5 |
| 20260506102808 | 54 | 83 | 12.0 | 20.0 | 0.00 | 0.00 | 0.00 | 70 | 1007.5 |
| 20260506102508 | 54 | 3 | 12.0 | 15.0 | 0.00 | 0.00 | 0.00 | 70 | 1007.4 |
| 20260506102208 | 54 | 19 | 9.0 | 19.0 | 0.00 | 0.00 | 0.00 | 70 | 1007.4 |
| 20260506101908 | 53 | 120 | 10.0 | 15.0 | 0.00 | 0.00 | 0.00 | 71 | 1007.5 |
| 20260506101608 | 53 | 119 | 14.0 | 35.0 | 0.00 | 0.00 | 0.00 | 71 | 1007.5 |
| 20260506101308 | 53 | 20 | 12.0 | 14.0 | 0.00 | 0.00 | 0.00 | 71 | 1007.5 |
| 20260506101008 | 53 | 37 | 12.0 | 20.0 | 0.00 | 0.00 | 0.00 | 71 | 1007.5 |
| 20260506100708 | 53 | 67 | 10.0 | 17.0 | 0.00 | 0.00 | 0.00 | 69 | 1007.5 |
| 20260506100408 | 53 | 70 | 6.0 | 16.0 | 0.00 | 0.00 | 0.00 | 69 | 1007.5 |
| 20260506100108 | 53 | 80 | 13.0 | 18.0 | 0.00 | 0.00 | 0.00 | 70 | 1007.5 |
| 20260506095808 | 52 | 4 | 9.0 | 22.0 | 0.00 | 0.00 | 0.00 | 69 | 1007.3 |
| 20260506095508 | 52 | 123 | 5.0 | 14.0 | 0.00 | 0.00 | 0.00 | 70 | 1007.5 |
| 20260506095208 | 52 | 77 | 11.0 | 22.0 | 0.00 | 0.00 | 0.00 | 70 | 1007.5 |
| 20260506094908 | 52 | 79 | 16.0 | 18.0 | 0.00 | 0.00 | 0.00 | 70 | 1007.3 |
| 20260506094608 | 52 | 93 | 17.0 | 35.0 | 0.00 | 0.00 | 0.00 | 70 | 1007.6 |
| 20260506094308 | 52 | 76 | 7.0 | 13.0 | 0.00 | 0.00 | 0.00 | 70 | 1007.5 |
| 20260506094008 | 52 | 75 | 27.0 | 39.0 | 0.00 | 0.00 | 0.00 | 70 | 1007.4 |
| 20260506093708 | 52 | 110 | 16.0 | 32.0 | 0.00 | 0.00 | 0.00 | 70 | 1007.6 |
| 20260506093408 | 52 | 78 | 13.0 | 19.0 | 0.00 | 0.00 | 0.00 | 69 | 1007.4 |
| 20260506093108 | 52 | 117 | 0.0 | 19.0 | 0.00 | 0.00 | 0.00 | 70 | 1007.2 |
| 20260506092808 | 52 | 173 | 0.0 | 31.0 | 0.00 | 0.00 | 0.00 | 69 | 1007.4 |
| 20260506092508 | 52 | 106 | 25.0 | 27.0 | 0.00 | 0.00 | 0.00 | 69 | 1007.4 |
| 20260506092208 | 52 | 343 | 11.0 | 19.0 | 0.00 | 0.00 | 0.00 | 69 | 1007.2 |
| 20260506091908 | 52 | 16 | 14.0 | 33.0 | 0.00 | 0.00 | 0.00 | 69 | 1007.4 |
| 20260506091608 | 52 | 106 | 11.0 | 28.0 | 0.00 | 0.00 | 0.00 | 69 | 1007.6 |
| 20260506091308 | 52 | 82 | 15.0 | 23.0 | 0.00 | 0.00 | 0.00 | 68 | 1007.3 |
| 20260506091008 | 51 | 98 | 0.0 | 10.0 | 0.00 | 0.00 | 0.00 | 70 | 1007.3 |
| 20260506090708 | 51 | 81 | 5.0 | 16.0 | 0.00 | 0.00 | 0.00 | 70 | 1007.5 |
| 20260506090408 | 51 | 301 | 12.0 | 14.0 | 0.00 | 0.00 | 0.00 | 70 | 1007.3 |
| 20260506090108 | 51 | 13 | 9.0 | 17.0 | 0.00 | 0.00 | 0.00 | 70 | 1007.5 |
| 20260506085808 | 51 | 14 | 15.0 | 20.0 | 0.00 | 0.00 | 0.00 | 69 | 1007.6 |
| 20260506085508 | 51 | 36 | 22.0 | 27.0 | 0.00 | 0.00 | 0.00 | 68 | 1007.5 |
| 20260506085208 | 51 | 356 | 14.0 | 19.0 | 0.00 | 0.00 | 0.00 | 69 | 1007.5 |
| 20260506084908 | 51 | 101 | 17.0 | 22.0 | 0.00 | 0.00 | 0.00 | 69 | 1007.5 |
| 20260506084608 | 51 | 324 | 16.0 | 18.0 | 0.00 | 0.00 | 0.00 | 69 | 1007.5 |
| 20260506084308 | 51 | 21 | 9.0 | 31.0 | 0.00 | 0.00 | 0.00 | 69 | 1007.4 |
| 20260506084008 | 51 | 4 | 16.0 | 20.0 | 0.00 | 0.00 | 0.00 | 69 | 1007.4 |
| 20260506083708 | 51 | 78 | 14.0 | 20.0 | 0.00 | 0.00 | 0.00 | 71 | 1007.2 |
| 20260506083408 | 51 | 293 | 11.0 | 27.0 | 0.00 | 0.00 | 0.00 | 71 | 1007.2 |
| 20260506083108 | 51 | 104 | 12.0 | 22.0 | 0.00 | 0.00 | 0.00 | 71 | 1007.4 |
| 20260506082808 | 51 | 94 | 18.0 | 18.0 | 0.00 | 0.00 | 0.00 | 71 | 1007.4 |
| 20260506082508 | 51 | 60 | 6.0 | 20.0 | 0.00 | 0.00 | 0.00 | 71 | 1007.4 |
| 20260506082208 | 51 | 37 | 15.0 | 23.0 | 0.00 | 0.00 | 0.00 | 71 | 1007.4 |
| 20260506081908 | 51 | 33 | 14.0 | 22.0 | 0.00 | 0.00 | 0.00 | 71 | 1007.4 |
| 20260506081608 | 51 | 74 | 10.0 | 27.0 | 0.00 | 0.00 | 0.00 | 71 | 1007.3 |
| 20260506081308 | 51 | 97 | 21.0 | 22.0 | 0.00 | 0.00 | 0.00 | 70 | 1007.4 |
| 20260506081008 | 51 | 16 | 13.0 | 15.0 | 0.00 | 0.00 | 0.00 | 71 | 1007.3 |
| 20260506080708 | 51 | 353 | 8.0 | 24.0 | 0.00 | 0.00 | 0.00 | 71 | 1007.1 |
| 20260506080408 | 51 | 45 | 11.0 | 24.0 | 0.00 | 0.00 | 0.00 | 70 | 1007.3 |
| 20260506080108 | 51 | 7 | 18.0 | 19.0 | 0.00 | 0.00 | 0.00 | 70 | 1007.3 |
| 20260506073408 | 51 | 49 | 8.0 | 16.0 | 0.00 | 0.00 | 0.00 | 68 | 1007.3 |
| 20260506073108 | 51 | 4 | 11.0 | 21.0 | 0.00 | 0.00 | 0.00 | 67 | 1007.2 |
| 20260506072808 | 51 | 88 | 11.0 | 15.0 | 0.00 | 0.00 | 0.00 | 68 | 1007.2 |
| 20260506072508 | 51 | 27 | 7.0 | 20.0 | 0.00 | 0.00 | 0.00 | 67 | 1007.5 |
| 20260506072208 | 51 | 297 | 16.0 | 16.0 | 0.00 | 0.00 | 0.00 | 67 | 1007.4 |
| 20260506071908 | 51 | 298 | 0.0 | 12.0 | 0.00 | 0.00 | 0.00 | 67 | 1007.2 |
| 20260506071608 | 50 | 71 | 8.0 | 11.0 | 0.00 | 0.00 | 0.00 | 67 | 1007.2 |
| 20260506071308 | 50 | 357 | 11.0 | 24.0 | 0.00 | 0.00 | 0.00 | 67 | 1007.1 |
| 20260506071008 | 50 | 339 | 11.0 | 20.0 | 0.00 | 0.00 | 0.00 | 67 | 1007.3 |
| 20260506070708 | 50 | 3 | 10.0 | 27.0 | 0.00 | 0.00 | 0.00 | 67 | 1007.1 |
| 20260506070408 | 50 | 107 | 7.0 | 26.0 | 0.00 | 0.00 | 0.00 | 67 | 1007.2 |
| 20260506070108 | 50 | 283 | 11.0 | 17.0 | 0.00 | 0.00 | 0.00 | 67 | 1007.4 |
| 20260506062508 | 50 | 91 | 18.0 | 21.0 | 0.00 | 0.00 | 0.00 | 68 | 1007.1 |
| 20260506062208 | 50 | 39 | 6.0 | 12.0 | 0.00 | 0.00 | 0.00 | 68 | 1007.0 |
| 20260506061908 | 50 | 82 | 6.0 | 23.0 | 0.00 | 0.00 | 0.00 | 68 | 1007.1 |
| 20260506061608 | 49 | 34 | 9.0 | 19.0 | 0.00 | 0.00 | 0.00 | 67 | 1007.1 |
| 20260506061308 | 49 | 65 | 4.0 | 20.0 | 0.00 | 0.00 | 0.00 | 67 | 1007.2 |
| 20260506061008 | 49 | 60 | 11.0 | 11.0 | 0.00 | 0.00 | 0.00 | 67 | 1007.3 |
| 20260506060708 | 49 | 87 | 9.0 | 19.0 | 0.00 | 0.00 | 0.00 | 67 | 1007.2 |
| 20260506060408 | 49 | 59 | 8.0 | 14.0 | 0.00 | 0.00 | 0.00 | 67 | 1007.3 |
| 20260506060108 | 49 | 104 | 5.0 | 20.0 | 0.00 | 0.00 | 0.00 | 67 | 1007.1 |
| 20260506051308 | 48 | 39 | 0.0 | 15.0 | 0.00 | 0.00 | 0.00 | 67 | 1007.3 |
| 20260506051008 | 48 | 92 | 14.0 | 15.0 | 0.00 | 0.00 | 0.00 | 67 | 1007.5 |
| 20260506050708 | 48 | 57 | 8.0 | 10.0 | 0.00 | 0.00 | 0.00 | 67 | 1007.4 |
| 20260506050408 | 48 | 89 | 5.0 | 9.0 | 0.00 | 0.00 | 0.00 | 67 | 1007.5 |
| 20260506050108 | 48 | 53 | 10.0 | 15.0 | 0.00 | 0.00 | 0.00 | 66 | 1007.4 |
| 20260506044908 | 48 | 34 | 12.0 | 19.0 | 0.00 | 0.00 | 0.00 | 66 | 1007.6 |
| 20260506044608 | 48 | 62 | 9.0 | 23.0 | 0.00 | 0.00 | 0.00 | 66 | 1007.6 |
| 20260506044308 | 47 | 78 | 6.0 | 18.0 | 0.00 | 0.00 | 0.00 | 66 | 1007.4 |
| 20260506044008 | 47 | 289 | 14.0 | 18.0 | 0.00 | 0.00 | 0.00 | 66 | 1007.5 |
| 20260506043708 | 47 | 140 | 6.0 | 16.0 | 0.00 | 0.00 | 0.00 | 66 | 1007.5 |
| 20260506043408 | 47 | 17 | 5.0 | 15.0 | 0.00 | 0.00 | 0.00 | 66 | 1007.6 |
| 20260506043108 | 47 | 30 | 6.0 | 20.0 | 0.00 | 0.00 | 0.00 | 65 | 1007.5 |
| 20260506042808 | 47 | 60 | 0.0 | 24.0 | 0.00 | 0.00 | 0.00 | 65 | 1007.6 |
| 20260506042508 | 47 | 78 | 11.0 | 16.0 | 0.00 | 0.00 | 0.00 | 65 | 1007.5 |
| 20260506042208 | 47 | 55 | 11.0 | 15.0 | 0.00 | 0.00 | 0.00 | 65 | 1007.4 |
| 20260506041908 | 47 | 83 | 19.0 | 24.0 | 0.00 | 0.00 | 0.00 | 65 | 1007.6 |
| 20260506041608 | 47 | 75 | 19.0 | 19.0 | 0.00 | 0.00 | 0.00 | 65 | 1007.4 |
| 20260506041308 | 47 | 63 | 23.0 | 23.0 | 0.00 | 0.00 | 0.00 | 65 | 1007.3 |
| 20260506041008 | 47 | 7 | 9.0 | 17.0 | 0.00 | 0.00 | 0.00 | 65 | 1007.4 |
| 20260506040708 | 47 | 40 | 6.0 | 16.0 | 0.00 | 0.00 | 0.00 | 65 | 1007.4 |
| 20260506040408 | 47 | 53 | 21.0 | 23.0 | 0.00 | 0.00 | 0.00 | 65 | 1007.5 |
| 20260506040108 | 47 | 344 | 7.0 | 13.0 | 0.00 | 0.00 | 0.00 | 65 | 1007.4 |
| 20260506035808 | 47 | 64 | 0.0 | 12.0 | 0.00 | 0.00 | 0.00 | 65 | 1007.4 |
| 20260506035508 | 47 | 136 | 6.0 | 20.0 | 0.00 | 0.00 | 0.00 | 65 | 1007.6 |
| 20260506035208 | 47 | 85 | 15.0 | 15.0 | 0.00 | 0.00 | 0.00 | 66 | 1007.5 |
| 20260506034908 | 47 | 118 | 4.0 | 27.0 | 0.00 | 0.00 | 0.00 | 65 | 1007.5 |
| 20260506034608 | 47 | 95 | 7.0 | 14.0 | 0.00 | 0.00 | 0.00 | 65 | 1007.5 |
| 20260506034308 | 47 | 107 | 12.0 | 12.0 | 0.00 | 0.00 | 0.00 | 64 | 1007.5 |
| 20260506034008 | 47 | 167 | 10.0 | 14.0 | 0.00 | 0.00 | 0.00 | 64 | 1007.3 |
| 20260506033708 | 47 | 107 | 8.0 | 9.0 | 0.00 | 0.00 | 0.00 | 64 | 1007.4 |
| 20260506033408 | 47 | 72 | 6.0 | 14.0 | 0.00 | 0.00 | 0.00 | 64 | 1007.6 |
| 20260506033108 | 47 | 53 | 5.0 | 23.0 | 0.00 | 0.00 | 0.00 | 64 | 1007.6 |
| 20260506032808 | 47 | 103 | 0.0 | 12.0 | 0.00 | 0.00 | 0.00 | 63 | 1007.5 |
| 20260506032508 | 47 | 63 | 4.0 | 25.0 | 0.00 | 0.00 | 0.00 | 63 | 1007.6 |
| 20260506032208 | 47 | 75 | 14.0 | 23.0 | 0.00 | 0.00 | 0.00 | 63 | 1007.5 |
| 20260506031908 | 47 | 76 | 17.0 | 17.0 | 0.00 | 0.00 | 0.00 | 64 | 1007.7 |
| 20260506031608 | 47 | 77 | 14.0 | 19.0 | 0.00 | 0.00 | 0.00 | 63 | 1007.7 |
| 20260506031308 | 47 | 109 | 15.0 | 29.0 | 0.00 | 0.00 | 0.00 | 64 | 1007.6 |
| 20260506031008 | 47 | 330 | 0.0 | 16.0 | 0.00 | 0.00 | 0.00 | 65 | 1007.7 |
| 20260506030708 | 47 | 193 | 10.0 | 12.0 | 0.00 | 0.00 | 0.00 | 64 | 1007.6 |
| 20260506030408 | 47 | 62 | 5.0 | 16.0 | 0.00 | 0.00 | 0.00 | 65 | 1007.6 |
| 20260506030108 | 47 | 249 | 7.0 | 14.0 | 0.00 | 0.00 | 0.00 | 66 | 1007.7 |
| 20260506025808 | 47 | 93 | 15.0 | 18.0 | 0.00 | 0.00 | 0.00 | 65 | 1007.7 |
| 20260506025508 | 47 | 22 | 6.0 | 18.0 | 0.00 | 0.00 | 0.00 | 66 | 1007.6 |
| 20260506025208 | 46 | 70 | 17.0 | 17.0 | 0.00 | 0.00 | 0.00 | 66 | 1007.6 |
| 20260506024908 | 46 | 266 | 0.0 | 14.0 | 0.00 | 0.00 | 0.00 | 67 | 1007.7 |
| 20260506024608 | 46 | 75 | 10.0 | 19.0 | 0.00 | 0.00 | 0.00 | 67 | 1007.7 |
| 20260506024308 | 46 | 95 | 0.0 | 13.0 | 0.00 | 0.00 | 0.00 | 68 | 1007.7 |
| 20260506024008 | 46 | 31 | 7.0 | 14.0 | 0.00 | 0.00 | 0.00 | 70 | 1007.7 |
| 20260506023708 | 46 | 94 | 5.0 | 11.0 | 0.00 | 0.00 | 0.00 | 69 | 1007.7 |
| 20260506023408 | 46 | 358 | 8.0 | 16.0 | 0.00 | 0.00 | 0.00 | 69 | 1007.8 |
| 20260506023108 | 46 | 15 | 8.0 | 13.0 | 0.00 | 0.00 | 0.00 | 70 | 1007.7 |
| 20260506022808 | 46 | 83 | 7.0 | 12.0 | 0.00 | 0.00 | 0.00 | 70 | 1007.7 |
| 20260506022508 | 45 | 68 | 11.0 | 15.0 | 0.00 | 0.00 | 0.00 | 71 | 1007.9 |
| 20260506022208 | 44 | 295 | 0.0 | 16.0 | 0.00 | 0.00 | 0.00 | 72 | 1007.7 |
| 20260506021908 | 44 | 80 | 5.0 | 16.0 | 0.00 | 0.00 | 0.00 | 73 | 1007.6 |
| 20260506021608 | 44 | 108 | 5.0 | 11.0 | 0.00 | 0.00 | 0.00 | 75 | 1007.9 |
| 20260506021308 | 43 | 68 | 6.0 | 13.0 | 0.00 | 0.00 | 0.00 | 77 | 1008.1 |
| 20260506021008 | 42 | 36 | 0.0 | 8.0 | 0.00 | 0.00 | 0.00 | 82 | 1008.1 |
| 20260506020708 | 41 | 62 | 4.0 | 10.0 | 0.00 | 0.00 | 0.00 | 87 | 1008.1 |
| 20260506020408 | 40 | 35 | 0.0 | 6.0 | 0.00 | 0.00 | 0.00 | 92 | 1008.0 |
| 20260506020108 | 39 | 351 | 0.0 | 9.0 | 0.00 | 0.00 | 0.00 | 94 | 1008.1 |
| 20260506015808 | 39 | 103 | 8.0 | 8.0 | 0.00 | 0.00 | 0.00 | 94 | 1008.0 |
| 20260506015508 | 39 | 106 | 0.0 | 8.0 | 0.00 | 0.00 | 0.00 | 94 | 1008.1 |
| 20260506015208 | 39 | 38 | 6.0 | 9.0 | 0.00 | 0.00 | 0.00 | 94 | 1008.3 |
| 20260506014908 | 39 | 81 | 5.0 | 8.0 | 0.00 | 0.00 | 0.00 | 94 | 1008.1 |
| 20260506014608 | 38 | 63 | 0.0 | 6.0 | 0.00 | 0.00 | 0.00 | 94 | 1008.2 |
| 20260506014308 | 38 | 119 | 0.0 | 10.0 | 0.00 | 0.00 | 0.00 | 94 | 1008.1 |
| 20260506014008 | 38 | 115 | 5.0 | 9.0 | 0.00 | 0.00 | 0.00 | 94 | 1008.1 |
| 20260506013708 | 38 | 48 | 4.0 | 6.0 | 0.00 | 0.00 | 0.00 | 94 | 1008.1 |
| 20260506013408 | 38 | 50 | 0.0 | 6.0 | 0.00 | 0.00 | 0.00 | 94 | 1008.4 |
| 20260506013108 | 38 | 43 | 4.0 | 6.0 | 0.00 | 0.00 | 0.00 | 94 | 1008.1 |
| 20260506012808 | 38 | 103 | 5.0 | 5.0 | 0.00 | 0.00 | 0.00 | 94 | 1008.4 |
| 20260506012508 | 38 | 73 | 0.0 | 8.0 | 0.00 | 0.00 | 0.00 | 94 | 1008.4 |
| 20260506012208 | 38 | 87 | 4.0 | 6.0 | 0.00 | 0.00 | 0.00 | 93 | 1008.5 |
| 20260506011908 | 38 | 72 | 4.0 | 6.0 | 0.00 | 0.00 | 0.00 | 93 | 1008.4 |
| 20260506011608 | 38 | 49 | 0.0 | 6.0 | 0.00 | 0.00 | 0.00 | 93 | 1008.2 |
| 20260506011308 | 38 | 62 | 6.0 | 6.0 | 0.00 | 0.00 | 0.00 | 93 | 1008.3 |
| 20260506011008 | 38 | 49 | 0.0 | 5.0 | 0.00 | 0.00 | 0.00 | 93 | 1008.3 |
| 20260506010708 | 38 | 71 | 5.0 | 6.0 | 0.00 | 0.00 | 0.00 | 93 | 1008.4 |
| 20260506010408 | 38 | 87 | 4.0 | 6.0 | 0.00 | 0.00 | 0.00 | 93 | 1008.3 |
| 20260506010108 | 38 | 99 | 0.0 | 9.0 | 0.00 | 0.00 | 0.00 | 93 | 1008.2 |
| 20260506005808 | 38 | 50 | 0.0 | 6.0 | 0.00 | 0.00 | 0.00 | 93 | 1008.1 |
| 20260506005508 | 38 | 49 | 0.0 | 6.0 | 0.00 | 0.00 | 0.00 | 92 | 1008.1 |
| 20260506005208 | 38 | 88 | 4.0 | 6.0 | 0.00 | 0.00 | 0.00 | 92 | 1008.0 |
| 20260506004908 | 38 | 55 | 0.0 | 5.0 | 0.00 | 0.00 | 0.00 | 92 | 1008.1 |
| 20260506004608 | 38 | 54 | 6.0 | 6.0 | 0.00 | 0.00 | 0.00 | 92 | 1008.2 |
| 20260506004308 | 38 | 50 | 0.0 | 7.0 | 0.00 | 0.00 | 0.00 | 92 | 1008.3 |
| 20260506004008 | 38 | 34 | 0.0 | 6.0 | 0.00 | 0.00 | 0.00 | 92 | 1008.4 |
| 20260506003708 | 38 | 22 | 0.0 | 6.0 | 0.00 | 0.00 | 0.00 | 91 | 1008.2 |
| 20260506003408 | 39 | 42 | 0.0 | 6.0 | 0.00 | 0.00 | 0.00 | 91 | 1008.4 |
| 20260506003108 | 39 | 43 | 4.0 | 6.0 | 0.00 | 0.00 | 0.00 | 91 | 1008.6 |
| 20260506002808 | 39 | 42 | 6.0 | 6.0 | 0.00 | 0.00 | 0.00 | 91 | 1008.5 |
| 20260506002508 | 39 | 93 | 4.0 | 6.0 | 0.00 | 0.00 | 0.00 | 91 | 1008.6 |
| 20260506002208 | 39 | 60 | 5.0 | 6.0 | 0.00 | 0.00 | 0.00 | 91 | 1008.6 |
| 20260506001908 | 39 | 101 | 6.0 | 6.0 | 0.00 | 0.00 | 0.00 | 90 | 1008.6 |
| 20260506001608 | 39 | 50 | 0.0 | 6.0 | 0.00 | 0.00 | 0.00 | 90 | 1008.7 |
| 20260506001308 | 39 | 71 | 4.0 | 6.0 | 0.00 | 0.00 | 0.00 | 90 | 1008.6 |
| 20260506001008 | 39 | 45 | 0.0 | 6.0 | 0.00 | 0.00 | 0.00 | 90 | 1008.8 |
| 20260506000708 | 39 | 47 | 0.0 | 6.0 | 0.00 | 0.00 | 0.00 | 90 | 1008.6 |
| 20260506000408 | 40 | 49 | 0.0 | 6.0 | 0.00 | 0.00 | 0.00 | 90 | 1008.6 |
| 20260506000108 | 40 | 76 | 5.0 | 6.0 | 0.00 | 0.00 | 0.00 | 90 | 1008.8 |
| 20260505235808 | 40 | 89 | 4.0 | 6.0 | 0.00 | 0.00 | 0.00 | 89 | 1008.6 |
| 20260505235508 | 40 | 84 | 6.0 | 6.0 | 0.00 | 0.00 | 0.00 | 89 | 1008.6 |
| 20260505235208 | 40 | 57 | 0.0 | 5.0 | 0.00 | 0.00 | 0.00 | 88 | 1008.7 |
| 20260505234908 | 40 | 38 | 0.0 | 5.0 | 0.00 | 0.00 | 0.00 | 88 | 1008.7 |
| 20260505234608 | 40 | 72 | 0.0 | 6.0 | 0.00 | 0.00 | 0.00 | 87 | 1008.7 |
| 20260505234308 | 40 | 70 | 4.0 | 6.0 | 0.00 | 0.00 | 0.00 | 87 | 1008.8 |
| 20260505234008 | 40 | 99 | 4.0 | 6.0 | 0.00 | 0.00 | 0.00 | 88 | 1008.9 |
| 20260505233708 | 40 | 83 | 5.0 | 7.0 | 0.00 | 0.00 | 0.00 | 87 | 1008.8 |
| 20260505233408 | 40 | 87 | 6.0 | 7.0 | 0.00 | 0.00 | 0.00 | 87 | 1008.8 |
| 20260505233108 | 40 | 80 | 5.0 | 6.0 | 0.00 | 0.00 | 0.00 | 86 | 1008.6 |
| 20260505232808 | 40 | 80 | 5.0 | 6.0 | 0.00 | 0.00 | 0.00 | 85 | 1008.8 |
| 20260505232508 | 41 | 85 | 6.0 | 6.0 | 0.00 | 0.00 | 0.00 | 85 | 1008.6 |
| 20260505232208 | 41 | 93 | 0.0 | 6.0 | 0.00 | 0.00 | 0.00 | 85 | 1008.9 |
| 20260505231908 | 41 | 65 | 6.0 | 7.0 | 0.00 | 0.00 | 0.00 | 85 | 1008.7 |
| 20260505231608 | 41 | 86 | 5.0 | 7.0 | 0.00 | 0.00 | 0.00 | 86 | 1008.8 |
| 20260505231308 | 41 | 89 | 4.0 | 6.0 | 0.00 | 0.00 | 0.00 | 86 | 1008.8 |
| 20260505231008 | 41 | 84 | 6.0 | 6.0 | 0.00 | 0.00 | 0.00 | 86 | 1008.7 |
| 20260505230708 | 41 | 130 | 0.0 | 6.0 | 0.00 | 0.00 | 0.00 | 86 | 1008.9 |
| 20260505230408 | 42 | 111 | 0.0 | 6.0 | 0.00 | 0.00 | 0.00 | 86 | 1008.8 |
| 20260505230108 | 42 | 76 | 5.0 | 6.0 | 0.00 | 0.00 | 0.00 | 86 | 1008.9 |
| 20260505225808 | 42 | 54 | 0.0 | 5.0 | 0.00 | 0.00 | 0.00 | 86 | 1008.8 |
| 20260505225508 | 42 | 77 | 0.0 | 6.0 | 0.00 | 0.00 | 0.00 | 86 | 1008.9 |
| 20260505225208 | 42 | 63 | 4.0 | 6.0 | 0.00 | 0.00 | 0.00 | 87 | 1009.2 |
| 20260505224908 | 42 | 80 | 4.0 | 6.0 | 0.00 | 0.00 | 0.00 | 87 | 1009.0 |
| 20260505224608 | 42 | 114 | 6.0 | 6.0 | 0.00 | 0.00 | 0.00 | 87 | 1009.0 |
| 20260505224308 | 43 | 89 | 0.0 | 7.0 | 0.00 | 0.00 | 0.00 | 86 | 1009.0 |
| 20260505224008 | 43 | 76 | 7.0 | 8.0 | 0.00 | 0.00 | 0.00 | 86 | 1009.1 |
| 20260505223708 | 43 | 113 | 0.0 | 6.0 | 0.00 | 0.00 | 0.00 | 85 | 1009.1 |
| 20260505223408 | 43 | 81 | 7.0 | 9.0 | 0.00 | 0.00 | 0.00 | 86 | 1009.2 |
| 20260505223108 | 43 | 111 | 0.0 | 5.0 | 0.00 | 0.00 | 0.00 | 86 | 1009.0 |
| 20260505222808 | 43 | 131 | 0.0 | 7.0 | 0.00 | 0.00 | 0.00 | 85 | 1009.1 |
| 20260505222508 | 43 | 89 | 4.0 | 6.0 | 0.00 | 0.00 | 0.00 | 85 | 1009.2 |
| 20260505222208 | 44 | 98 | 4.0 | 6.0 | 0.00 | 0.00 | 0.00 | 85 | 1009.1 |
| 20260505221908 | 44 | 63 | 0.0 | 8.0 | 0.00 | 0.00 | 0.00 | 85 | 1009.3 |
| 20260505221608 | 44 | 85 | 7.0 | 7.0 | 0.00 | 0.00 | 0.00 | 85 | 1009.3 |
| 20260505221308 | 44 | 127 | 4.0 | 6.0 | 0.00 | 0.00 | 0.00 | 84 | 1009.0 |
| 20260505221008 | 44 | 126 | 4.0 | 6.0 | 0.00 | 0.00 | 0.00 | 84 | 1009.1 |
| 20260505220708 | 44 | 110 | 5.0 | 8.0 | 0.00 | 0.00 | 0.00 | 83 | 1008.9 |
| 20260505220408 | 44 | 99 | 5.0 | 11.0 | 0.00 | 0.00 | 0.00 | 83 | 1009.2 |
| 20260505220108 | 44 | 76 | 6.0 | 10.0 | 0.00 | 0.00 | 0.00 | 83 | 1009.0 |
| 20260505215808 | 45 | 84 | 4.0 | 6.0 | 0.00 | 0.00 | 0.07 | 83 | 1009.3 |
| 20260505215508 | 45 | 84 | 0.0 | 6.0 | 0.00 | 0.00 | 0.07 | 84 | 1009.2 |
| 20260505215208 | 45 | 72 | 0.0 | 8.0 | 0.00 | 0.00 | 0.07 | 84 | 1009.2 |
| 20260505214908 | 45 | 54 | 5.0 | 8.0 | 0.00 | 0.00 | 0.07 | 84 | 1009.2 |
| 20260505214608 | 45 | 59 | 5.0 | 6.0 | 0.00 | 0.00 | 0.07 | 84 | 1009.1 |
| 20260505214308 | 45 | 88 | 6.0 | 8.0 | 0.00 | 0.00 | 0.07 | 84 | 1009.3 |
| 20260505214008 | 45 | 87 | 5.0 | 7.0 | 0.00 | 0.00 | 0.07 | 84 | 1009.4 |
| 20260505213708 | 45 | 44 | 0.0 | 8.0 | 0.00 | 0.00 | 0.07 | 84 | 1009.2 |
| 20260505213408 | 46 | 97 | 0.0 | 6.0 | 0.00 | 0.00 | 0.07 | 84 | 1009.2 |
| 20260505213108 | 45 | 50 | 0.0 | 8.0 | 0.00 | 0.00 | 0.07 | 85 | 1009.3 |
| 20260505212808 | 45 | 107 | 0.0 | 5.0 | 0.00 | 0.00 | 0.07 | 86 | 1009.2 |
| 20260505212508 | 45 | 65 | 6.0 | 11.0 | 0.00 | 0.00 | 0.07 | 87 | 1009.5 |
| 20260505212208 | 45 | 52 | 5.0 | 6.0 | 0.00 | 0.00 | 0.07 | 87 | 1009.5 |
| 20260505211908 | 45 | 94 | 0.0 | 6.0 | 0.00 | 0.00 | 0.07 | 86 | 1009.6 |
| 20260505211608 | 45 | 55 | 0.0 | 5.0 | 0.00 | 0.00 | 0.07 | 86 | 1009.4 |
| 20260505211308 | 46 | 62 | 0.0 | 5.0 | 0.00 | 0.00 | 0.07 | 86 | 1009.3 |
| 20260505211008 | 46 | 89 | 4.0 | 6.0 | 0.00 | 0.00 | 0.07 | 86 | 1009.4 |
| 20260505210708 | 46 | 85 | 7.0 | 7.0 | 0.00 | 0.00 | 0.07 | 85 | 1009.5 |
| 20260505210408 | 46 | 91 | 5.0 | 7.0 | 0.00 | 0.00 | 0.07 | 85 | 1009.4 |
| 20260505210108 | 46 | 101 | 5.0 | 6.0 | 0.00 | 0.00 | 0.07 | 85 | 1009.5 |
| 20260505205808 | 47 | 88 | 6.0 | 7.0 | 0.00 | 0.00 | 0.07 | 84 | 1009.4 |
| 20260505205508 | 47 | 89 | 5.0 | 7.0 | 0.00 | 0.00 | 0.07 | 84 | 1009.3 |
| 20260505205208 | 47 | 89 | 7.0 | 7.0 | 0.00 | 0.00 | 0.07 | 84 | 1009.5 |
| 20260505204908 | 47 | 76 | 6.0 | 7.0 | 0.00 | 0.00 | 0.07 | 84 | 1009.4 |
| 20260505204608 | 47 | 88 | 9.0 | 9.0 | 0.00 | 0.00 | 0.07 | 83 | 1009.3 |
| 20260505204308 | 47 | 40 | 0.0 | 8.0 | 0.00 | 0.00 | 0.07 | 83 | 1009.4 |
| 20260505204008 | 47 | 84 | 0.0 | 7.0 | 0.00 | 0.00 | 0.07 | 83 | 1009.3 |
| 20260505203708 | 47 | 44 | 0.0 | 8.0 | 0.00 | 0.00 | 0.07 | 83 | 1009.3 |
| 20260505203408 | 48 | 75 | 5.0 | 9.0 | 0.00 | 0.00 | 0.07 | 83 | 1009.3 |
| 20260505203108 | 48 | 57 | 5.0 | 8.0 | 0.00 | 0.00 | 0.07 | 83 | 1009.2 |
| 20260505202808 | 48 | 13 | 6.0 | 12.0 | 0.00 | 0.00 | 0.07 | 84 | 1009.2 |
| 20260505202508 | 48 | 86 | 8.0 | 9.0 | 0.00 | 0.00 | 0.07 | 84 | 1009.3 |
| 20260505202208 | 48 | 101 | 11.0 | 11.0 | 0.00 | 0.00 | 0.07 | 84 | 1009.2 |
| 20260505201908 | 48 | 111 | 9.0 | 15.0 | 0.00 | 0.00 | 0.07 | 84 | 1009.0 |
| 20260505201608 | 48 | 75 | 6.0 | 10.0 | 0.00 | 0.00 | 0.07 | 84 | 1009.4 |
| 20260505201308 | 48 | 104 | 11.0 | 11.0 | 0.00 | 0.00 | 0.07 | 84 | 1009.2 |
| 20260505201008 | 48 | 67 | 0.0 | 9.0 | 0.00 | 0.00 | 0.07 | 84 | 1009.1 |
| 20260505200708 | 48 | 72 | 5.0 | 18.0 | 0.00 | 0.00 | 0.07 | 84 | 1009.2 |
| 20260505200408 | 48 | 58 | 5.0 | 17.0 | 0.00 | 0.00 | 0.07 | 84 | 1009.1 |
| 20260505200108 | 48 | 283 | 0.0 | 21.0 | 0.00 | 0.00 | 0.07 | 84 | 1009.2 |
| 20260505195808 | 48 | 20 | 4.0 | 9.0 | 0.00 | 0.00 | 0.07 | 84 | 1009.1 |
| 20260505195508 | 48 | 12 | 0.0 | 15.0 | 0.00 | 0.00 | 0.07 | 84 | 1009.0 |
| 20260505195208 | 48 | 339 | 0.0 | 11.0 | 0.00 | 0.00 | 0.07 | 84 | 1009.3 |
| 20260505194908 | 49 | 70 | 6.0 | 16.0 | 0.00 | 0.00 | 0.07 | 84 | 1009.2 |
| 20260505194608 | 49 | 12 | 10.0 | 13.0 | 0.00 | 0.00 | 0.07 | 84 | 1009.2 |
| 20260505194308 | 49 | 17 | 6.0 | 11.0 | 0.00 | 0.00 | 0.07 | 84 | 1009.2 |
| 20260505194008 | 49 | 278 | 10.0 | 12.0 | 0.00 | 0.00 | 0.07 | 84 | 1009.1 |
| 20260505193708 | 49 | 41 | 9.0 | 9.0 | 0.00 | 0.00 | 0.07 | 83 | 1009.3 |
| 20260505193408 | 49 | 11 | 6.0 | 11.0 | 0.00 | 0.00 | 0.07 | 83 | 1009.3 |
| 20260505193108 | 49 | 15 | 10.0 | 10.0 | 0.00 | 0.00 | 0.07 | 82 | 1009.2 |
| 20260505192808 | 49 | 81 | 5.0 | 12.0 | 0.00 | 0.00 | 0.07 | 81 | 1009.2 |
| 20260505192508 | 49 | 55 | 5.0 | 10.0 | 0.00 | 0.00 | 0.07 | 81 | 1009.3 |
| 20260505192208 | 49 | 34 | 0.0 | 14.0 | 0.00 | 0.00 | 0.07 | 80 | 1009.3 |
| 20260505191908 | 50 | 349 | 10.0 | 11.0 | 0.00 | 0.00 | 0.07 | 79 | 1009.5 |
| 20260505191608 | 50 | 25 | 0.0 | 9.0 | 0.00 | 0.00 | 0.07 | 79 | 1009.3 |
| 20260505191308 | 50 | 108 | 0.0 | 12.0 | 0.00 | 0.00 | 0.07 | 78 | 1009.3 |
| 20260505191008 | 50 | 39 | 6.0 | 17.0 | 0.00 | 0.00 | 0.07 | 78 | 1009.1 |
| 20260505190708 | 50 | 86 | 5.0 | 11.0 | 0.00 | 0.00 | 0.07 | 77 | 1009.2 |
| 20260505190408 | 50 | 14 | 9.0 | 10.0 | 0.00 | 0.00 | 0.07 | 76 | 1009.0 |
| 20260505190108 | 51 | 310 | 0.0 | 11.0 | 0.00 | 0.00 | 0.07 | 75 | 1009.1 |
| 20260505185808 | 51 | 34 | 4.0 | 11.0 | 0.00 | 0.00 | 0.07 | 74 | 1009.3 |
| 20260505185508 | 51 | 5 | 5.0 | 8.0 | 0.00 | 0.00 | 0.07 | 73 | 1009.2 |
| 20260505185208 | 51 | 49 | 6.0 | 10.0 | 0.00 | 0.00 | 0.07 | 72 | 1008.9 |
| 20260505184908 | 51 | 61 | 10.0 | 11.0 | 0.00 | 0.00 | 0.07 | 71 | 1009.3 |
| 20260505184608 | 52 | 75 | 4.0 | 9.0 | 0.00 | 0.00 | 0.07 | 70 | 1009.1 |
| 20260505184308 | 52 | 91 | 5.0 | 11.0 | 0.00 | 0.00 | 0.07 | 70 | 1009.0 |
| 20260505184008 | 52 | 117 | 6.0 | 6.0 | 0.00 | 0.00 | 0.07 | 69 | 1008.9 |
| 20260505183708 | 53 | 118 | 5.0 | 12.0 | 0.00 | 0.00 | 0.07 | 68 | 1009.0 |
| 20260505183408 | 53 | 20 | 9.0 | 11.0 | 0.00 | 0.00 | 0.07 | 67 | 1008.9 |
| 20260505183108 | 53 | 311 | 0.0 | 8.0 | 0.00 | 0.00 | 0.07 | 67 | 1008.9 |
| 20260505182808 | 53 | 116 | 0.0 | 13.0 | 0.00 | 0.00 | 0.07 | 66 | 1009.0 |
| 20260505182508 | 54 | 312 | 4.0 | 15.0 | 0.00 | 0.00 | 0.07 | 65 | 1008.9 |
| 20260505182208 | 54 | 88 | 5.0 | 15.0 | 0.00 | 0.00 | 0.07 | 65 | 1008.9 |
| 20260505181908 | 54 | 25 | 6.0 | 13.0 | 0.00 | 0.00 | 0.07 | 64 | 1008.9 |
| 20260505181608 | 55 | 325 | 19.0 | 19.0 | 0.00 | 0.00 | 0.07 | 64 | 1009.2 |
| 20260505181308 | 55 | 3 | 11.0 | 14.0 | 0.00 | 0.00 | 0.07 | 63 | 1009.1 |
| 20260505181008 | 54 | 47 | 10.0 | 14.0 | 0.00 | 0.00 | 0.07 | 65 | 1009.2 |
| 20260505180708 | 54 | 31 | 6.0 | 14.0 | 0.00 | 0.00 | 0.07 | 64 | 1009.0 |
| 20260505180408 | 54 | 5 | 10.0 | 15.0 | 0.00 | 0.00 | 0.07 | 65 | 1009.1 |
| 20260505175808 | 55 | 9 | 15.0 | 18.0 | 0.00 | 0.00 | 0.07 | 64 | 1009.2 |
| 20260505175508 | 55 | 48 | 7.0 | 17.0 | 0.00 | 0.00 | 0.07 | 63 | 1009.1 |
| 20260505175208 | 56 | 360 | 6.0 | 20.0 | 0.00 | 0.00 | 0.07 | 62 | 1009.1 |
| 20260505174908 | 56 | 85 | 5.0 | 19.0 | 0.00 | 0.00 | 0.07 | 62 | 1008.9 |
| 20260505174608 | 56 | 10 | 15.0 | 23.0 | 0.00 | 0.00 | 0.07 | 62 | 1009.0 |
| 20260505174308 | 56 | 10 | 6.0 | 22.0 | 0.00 | 0.00 | 0.07 | 61 | 1009.0 |
| 20260505174008 | 56 | 88 | 4.0 | 13.0 | 0.00 | 0.00 | 0.07 | 61 | 1009.1 |
| 20260505173708 | 57 | 15 | 11.0 | 19.0 | 0.00 | 0.00 | 0.07 | 60 | 1009.0 |
| 20260505173408 | 57 | 60 | 6.0 | 26.0 | 0.00 | 0.00 | 0.07 | 59 | 1009.0 |
| 20260505173108 | 57 | 8 | 5.0 | 26.0 | 0.00 | 0.00 | 0.07 | 59 | 1009.2 |
| 20260505172808 | 57 | 118 | 8.0 | 19.0 | 0.00 | 0.00 | 0.07 | 59 | 1009.1 |
| 20260505172508 | 57 | 43 | 10.0 | 25.0 | 0.00 | 0.00 | 0.07 | 58 | 1009.2 |
| 20260505172208 | 57 | 347 | 9.0 | 23.0 | 0.00 | 0.00 | 0.07 | 59 | 1009.0 |
| 20260505171908 | 57 | 78 | 10.0 | 11.0 | 0.00 | 0.00 | 0.07 | 60 | 1009.2 |
| 20260505171608 | 57 | 39 | 8.0 | 19.0 | 0.00 | 0.00 | 0.07 | 61 | 1009.2 |
| 20260505171308 | 57 | 63 | 11.0 | 17.0 | 0.00 | 0.00 | 0.07 | 60 | 1009.2 |
| 20260505171008 | 57 | 40 | 6.0 | 23.0 | 0.00 | 0.00 | 0.07 | 60 | 1009.2 |
| 20260505170708 | 57 | 76 | 8.0 | 12.0 | 0.00 | 0.00 | 0.07 | 59 | 1009.3 |
| 20260505170408 | 57 | 80 | 18.0 | 24.0 | 0.00 | 0.00 | 0.07 | 58 | 1009.1 |
| 20260505170108 | 57 | 4 | 15.0 | 24.0 | 0.00 | 0.00 | 0.07 | 57 | 1009.2 |
| 20260505165808 | 57 | 57 | 19.0 | 20.0 | 0.00 | 0.00 | 0.07 | 58 | 1009.2 |
| 20260505165508 | 58 | 60 | 16.0 | 17.0 | 0.00 | 0.00 | 0.07 | 58 | 1009.1 |
| 20260505165208 | 57 | 326 | 7.0 | 16.0 | 0.00 | 0.00 | 0.07 | 57 | 1009.1 |
| 20260505164908 | 57 | 41 | 6.0 | 15.0 | 0.00 | 0.00 | 0.07 | 58 | 1009.3 |
| 20260505164608 | 57 | 118 | 11.0 | 17.0 | 0.00 | 0.00 | 0.07 | 57 | 1009.2 |
| 20260505164308 | 58 | 119 | 12.0 | 19.0 | 0.00 | 0.00 | 0.07 | 57 | 1009.3 |
| 20260505164008 | 58 | 63 | 20.0 | 25.0 | 0.00 | 0.00 | 0.07 | 56 | 1009.2 |
| 20260505163708 | 58 | 292 | 13.0 | 21.0 | 0.00 | 0.00 | 0.07 | 57 | 1009.2 |
| 20260505163408 | 58 | 120 | 4.0 | 21.0 | 0.00 | 0.00 | 0.07 | 56 | 1009.1 |
| 20260505163108 | 58 | 225 | 6.0 | 27.0 | 0.00 | 0.00 | 0.07 | 57 | 1009.3 |
| 20260505162808 | 58 | 21 | 15.0 | 19.0 | 0.00 | 0.00 | 0.07 | 57 | 1009.2 |
| 20260505162508 | 58 | 334 | 7.0 | 14.0 | 0.00 | 0.00 | 0.07 | 58 | 1009.2 |
| 20260505162208 | 58 | 36 | 0.0 | 15.0 | 0.00 | 0.00 | 0.07 | 58 | 1009.3 |
| 20260505161908 | 58 | 115 | 9.0 | 24.0 | 0.00 | 0.00 | 0.07 | 57 | 1009.3 |
| 20260505161608 | 58 | 43 | 9.0 | 15.0 | 0.00 | 0.00 | 0.07 | 58 | 1009.2 |
| 20260505161308 | 58 | 32 | 8.0 | 17.0 | 0.00 | 0.00 | 0.07 | 60 | 1009.3 |
| 20260505161008 | 58 | 18 | 11.0 | 26.0 | 0.00 | 0.00 | 0.07 | 59 | 1009.2 |
| 20260505160708 | 58 | 116 | 15.0 | 31.0 | 0.00 | 0.00 | 0.07 | 57 | 1009.4 |
| 20260505160408 | 58 | 9 | 9.0 | 16.0 | 0.00 | 0.00 | 0.07 | 58 | 1009.2 |
| 20260505160108 | 58 | 95 | 17.0 | 25.0 | 0.00 | 0.00 | 0.07 | 57 | 1009.3 |
| 20260505153108 | 58 | 45 | 12.0 | 16.0 | 0.00 | 0.00 | 0.07 | 62 | 1009.2 |
| 20260505152808 | 58 | 61 | 23.0 | 23.0 | 0.00 | 0.00 | 0.07 | 68 | 1009.2 |
| 20260505152508 | 59 | 79 | 0.0 | 20.0 | 0.00 | 0.00 | 0.07 | 67 | 1009.2 |
| 20260505152208 | 59 | 136 | 9.0 | 21.0 | 0.00 | 0.00 | 0.07 | 67 | 1009.1 |
| 20260505151908 | 59 | 94 | 15.0 | 22.0 | 0.00 | 0.00 | 0.07 | 66 | 1009.2 |
| 20260505151608 | 59 | 42 | 5.0 | 19.0 | 0.00 | 0.00 | 0.07 | 64 | 1009.2 |
| 20260505151308 | 59 | 104 | 20.0 | 27.0 | 0.00 | 0.00 | 0.07 | 63 | 1009.2 |
| 20260505151008 | 58 | 104 | 12.0 | 16.0 | 0.00 | 0.00 | 0.07 | 65 | 1009.3 |
| 20260505150708 | 57 | 127 | 4.0 | 17.0 | 0.00 | 0.00 | 0.07 | 69 | 1009.2 |
| 20260505150408 | 57 | 60 | 13.0 | 27.0 | 0.00 | 0.00 | 0.07 | 68 | 1009.3 |
| 20260505150108 | 57 | 64 | 23.0 | 33.0 | 0.00 | 0.00 | 0.07 | 65 | 1009.4 |
| 20260505140408 | 56 | 61 | 13.0 | 25.0 | 0.00 | 0.00 | 0.07 | 66 | 1009.7 |
| 20260505140108 | 56 | 92 | 12.0 | 23.0 | 0.00 | 0.00 | 0.07 | 67 | 1009.6 |